Wind_Speed
18 19 19 19 19 19 19 19 20 21 22 21 22 21 21 20 21 21 20 20 19 18 18 17 17 17 17 16 15 14 14 14 14 13 12 11 11 11 10 10 9 8 8 7
20 20 20 21 21 21 21 20 21 22 23 22 23 23 22 21 21 21 21 21 21 20 20 19 18 18 18 18 17 17 16 16 16 15 14 13 13 13 12 12 11 10 9 9
20 21 21 21 22 22 22 21 22 23 24 23 24 23 22 22 22 22 23 22 22 22 22 20 20 20 20 19 19 19 18 18 17 16 16 16 15 15 14 13 13 11 11 10
22 22 21 22 22 21 21 22 24 24 24 23 24 23 23 23 23 23 23 23 22 22 22 21 20 21 20 20 20 20 21 20 20 19 18 18 17 17 16 15 14 13 13 12
22 22 22 22 22 21 22 23 24 24 24 24 24 24 24 25 24 23 23 23 23 23 22 22 21 22 22 22 22 22 22 23 22 22 21 21 20 19 19 18 16 16 15 14
22 22 22 22 22 22 22 23 24 24 24 25 25 26 25 25 25 24 24 24 24 24 23 23 23 23 24 24 24 24 24 23 23 23 23 23 21 21 21 20 19 18 17 16
22 23 23 23 22 22 22 22 22 22 23 25 26 27 26 26 26 25 25 25 25 25 25 25 25 25 25 26 26 26 24 23 24 24 24 24 23 22 22 21 20 19 18 17
21 22 23 23 23 23 23 23 23 22 22 23 26 27 25 27 26 27 26 26 26 26 26 26 26 26 26 26 26 27 26 25 25 25 24 24 24 24 23 22 21 20 19 18
20 22 24 24 24 24 24 24 23 24 24 25 26 27 27 26 26 26 26 26 26 26 26 27 28 27 27 27 26 27 27 27 27 26 26 26 25 24 23 22 21 21 20 20
21 23 24 24 25 26 25 25 25 24 24 25 26 26 25 25 24 25 25 26 26 27 27 28 29 28 28 27 27 27 28 28 28 27 27 26 25 25 23 23 22 22 22 22
21 23 24 25 25 25 25 26 26 26 26 25 25 25 26 27 25 25 26 27 27 27 27 28 29 28 28 27 27 28 29 29 28 28 28 28 26 25 24 23 23 23 23 23
21 21 22 24 25 25 26 26 26 26 27 27 26 26 28 28 27 27 27 27 27 27 27 28 29 29 28 28 27 28 29 29 29 29 28 28 26 26 25 24 24 24 24 23
21 21 21 22 23 24 25 26 26 27 27 27 27 27 29 28 28 27 28 27 27 28 28 28 28 29 29 30 29 29 30 30 30 29 28 28 28 26 25 24 24 25 24 24
21 21 21 20 21 24 25 25 26 27 27 28 28 28 29 29 29 28 28 28 28 28 29 29 29 29 30 30 30 30 30 30 30 29 29 29 29 27 26 25 25 25 25 24
21 22 22 22 23 25 25 25 26 27 28 28 28 28 29 30 30 29 29 29 29 29 29 29 30 30 29 30 30 29 30 30 31 30 29 28 28 27 26 26 25 25 25 25
21 22 22 23 23 24 24 24 25 27 27 28 29 29 29 30 30 29 29 29 28 28 29 29 29 29 29 30 30 30 30 31 32 31 31 30 29 27 26 27 27 27 26 26
21 21 21 22 23 24 24 24 24 25 26 27 28 28 29 29 29 29 29 29 28 28 28 28 28 29 30 30 31 32 32 32 32 31 31 31 30 29 28 27 28 28 28 28
20 21 21 22 23 23 23 24 24 24 25 26 27 27 28 29 29 28 28 28 28 29 29 28 29 29 29 30 31 33 32 32 31 30 30 30 30 30 29 29 29 30 30 29
19 20 21 22 22 22 22 22 22 23 23 24 24 25 25 26 26 27 27 28 29 29 30 29 30 30 30 31 31 31 32 30 30 30 29 30 30 30 30 30 29 30 30 29
19 19 20 21 21 21 22 21 20 21 22 22 22 23 23 23 24 25 26 28 29 29 30 30 30 31 31 31 31 31 31 31 30 30 30 30 30 30 30 30 30 30 30 29
18 18 19 20 21 21 21 20 19 20 21 20 20 21 22 23 24 25 25 26 27 27 28 28 28 28 29 30 30 30 30 30 29 30 31 30 30 30 30 30 30 30 29 29
18 18 19 20 20 21 20 19 19 20 20 20 20 21 21 22 23 23 24 24 25 26 26 26 27 27 28 28 28 28 30 30 30 31 32 32 31 30 30 30 31 31 30 30
17 17 18 19 20 21 20 19 19 19 20 20 20 20 19 20 20 20 21 22 23 23 23 24 25 26 25 26 27 27 27 28 29 30 31 31 30 30 30 31 31 31 30 30
17 17 18 19 19 19 19 19 19 18 19 19 19 19 19 19 19 20 20 20 21 22 23 23 24 24 24 24 25 25 26 27 29 29 29 29 30 30 31 31 31 31 31 30
16 17 18 19 18 18 19 19 19 19 18 19 18 18 19 19 19 19 20 20 21 21 21 22 22 23 23 23 24 24 25 26 27 27 27 28 29 29 29 30 30 31 31 31
17 18 19 18 18 18 19 19 19 19 19 19 18 18 19 19 18 18 18 19 20 21 21 21 21 22 23 23 23 23 23 24 24 25 26 27 27 28 28 29 29 30 30 30
Wind_Direction
246 247 248 248 248 248 251 252 253 254 255 257 258 258 258 260 260 260 261 260 260 262 264 266 269 272 273 275 276 270 267 270 268 269 272 276 278 279 281 283 283 285 284 282
247 247 249 250 251 252 254 255 256 257 258 259 261 260 260 259 258 258 259 260 262 262 263 265 269 270 271 271 273 270 270 268 266 266 268 271 273 275 277 279 279 282 281 278
246 248 250 252 252 254 256 256 257 258 260 261 262 264 262 261 260 258 259 260 261 260 262 264 266 268 268 268 269 267 269 266 264 265 268 271 271 272 273 275 275 279 279 277
248 250 251 252 253 255 258 259 259 260 261 263 264 263 263 262 261 260 260 259 259 260 261 262 263 264 265 267 266 266 267 263 262 264 267 269 268 268 271 273 274 276 277 274
250 250 250 251 254 256 258 261 262 262 263 264 265 264 263 264 261 262 262 259 259 259 262 262 262 262 262 264 265 264 264 261 260 263 264 264 265 266 267 268 269 272 272 271
251 252 251 252 255 257 260 263 265 264 264 264 263 263 263 263 261 262 263 262 260 259 260 262 262 262 261 262 263 262 262 260 259 262 263 261 263 265 264 264 264 267 270 269
255 254 253 254 256 259 260 263 265 266 264 265 266 264 264 262 261 262 262 262 261 260 260 261 261 262 263 261 260 259 259 259 259 261 263 262 261 264 263 263 261 263 267 268
256 257 256 255 255 258 261 262 260 261 263 266 270 268 266 264 263 264 263 263 262 261 260 260 260 261 261 260 259 257 257 258 259 260 263 264 262 261 261 261 260 261 264 265
255 257 259 259 257 259 261 261 260 262 264 265 267 269 269 268 266 266 265 263 262 262 260 260 260 261 260 259 258 256 255 256 258 259 260 261 261 259 258 258 258 259 262 263
258 260 262 262 262 261 261 261 261 262 264 265 269 271 273 269 266 265 265 263 262 261 260 259 259 259 260 259 256 255 253 254 256 257 259 259 261 259 256 254 255 257 260 261
262 265 266 264 263 264 263 261 261 262 263 264 267 271 270 269 266 264 264 264 264 264 261 260 259 258 257 258 258 255 252 253 255 257 259 260 262 261 259 258 255 256 259 261
267 267 266 265 264 263 262 262 262 263 265 266 268 270 270 270 268 266 265 265 264 264 262 261 259 258 256 256 257 256 253 253 254 255 257 258 259 260 261 258 256 255 257 260
269 269 270 271 270 267 264 262 261 262 264 265 266 270 272 270 269 268 267 266 263 263 262 261 260 259 258 258 258 258 255 254 255 254 254 255 257 259 259 258 255 254 256 260
271 270 267 265 264 266 266 264 263 263 264 266 268 269 270 271 271 269 268 266 264 263 263 262 262 259 259 259 260 259 257 255 254 254 253 255 255 256 257 255 254 253 257 260
273 271 268 267 267 268 267 267 265 266 267 267 268 271 271 270 270 271 270 267 266 265 264 262 262 260 258 258 259 258 257 257 256 256 255 255 255 254 255 256 255 254 256 258
271 271 270 270 270 271 270 269 267 267 266 266 267 269 272 271 270 270 268 266 265 262 262 262 261 260 258 257 256 257 257 256 256 256 256 256 256 253 254 255 256 255 256 258
274 274 273 273 274 274 273 271 270 268 267 266 266 268 271 271 270 269 267 264 263 261 261 261 260 260 257 255 255 256 256 255 256 256 254 254 255 255 254 253 254 254 256 258
275 274 275 277 277 274 273 274 270 269 267 266 266 269 271 270 270 268 267 265 263 262 262 261 259 258 258 256 256 257 256 254 255 257 255 254 255 254 252 253 254 255 255 258
275 275 276 277 279 276 275 275 273 270 269 268 268 270 272 272 270 267 265 265 264 262 261 261 259 260 262 260 257 257 254 253 254 254 254 254 254 254 252 251 253 255 257 258
276 276 276 277 276 277 278 278 276 273 273 272 273 272 273 274 271 269 267 266 265 264 264 263 263 263 263 262 259 257 253 253 254 252 252 253 254 253 251 250 251 253 254 255
278 276 276 276 276 278 278 277 275 275 276 277 277 276 275 275 273 271 269 268 266 265 264 263 265 264 264 263 260 256 254 252 254 253 252 252 251 251 250 251 251 252 252 253
278 278 278 278 277 277 276 274 274 275 277 277 278 277 277 276 274 272 271 270 269 267 267 265 264 263 262 262 261 259 256 254 253 253 252 250 249 249 249 250 250 253 253 255
278 278 278 277 276 275 275 273 275 276 277 279 279 279 279 278 277 276 274 272 271 271 271 267 264 261 263 264 262 261 257 254 253 252 251 250 248 248 250 251 252 253 254 256
280 278 279 280 278 277 276 275 276 277 277 279 280 281 279 280 280 277 274 272 272 272 272 270 266 266 268 267 265 263 260 256 253 251 251 250 249 250 251 252 252 253 253 256
283 282 281 280 277 275 275 276 277 278 277 278 280 281 282 283 282 276 273 273 274 274 272 272 270 270 270 267 264 263 260 257 253 251 252 251 250 249 250 252 253 253 253 255
286 284 282 280 278 277 278 279 281 281 280 280 280 282 285 288 287 283 278 276 278 279 277 274 272 271 270 268 264 261 260 259 255 251 252 251 248 248 248 250 251 251 252 253
Height
5867 5869 5871 5872 5874 5875 5876 5877 5878 5878 5878 5879 5880 5881 5882 5882 5883 5883 5884 5884 5884 5884 5885 5884 5884 5884 5884 5884 5883 5883 5883 5883 5882 5882 5882 5881 5881 5880 5879 5879 5878 5877 5876 5875
5863 5864 5866 5867 5868 5870 5871 5872 5873 5873 5873 5874 5875 5876 5877 5877 5878 5878 5879 5879 5879 5880 5880 5880 5880 5880 5880 5880 5879 5879 5879 5879 5879 5879 5879 5878 5878 5877 5877 5876 5875 5874 5874 5873
5858 5860 5860 5862 5863 5864 5866 5867 5868 5868 5868 5869 5870 5871 5872 5872 5872 5873 5874 5874 5874 5874 5874 5875 5875 5875 5875 5875 5875 5875 5875 5875 5875 5875 5875 5875 5874 5874 5874 5873 5872 5872 5871 5870
5852 5853 5855 5856 5857 5859 5860 5861 5862 5862 5863 5864 5865 5867 5866 5866 5866 5867 5868 5868 5869 5869 5869 5869 5869 5869 5869 5870 5870 5870 5870 5870 5870 5870 5871 5871 5871 5870 5870 5869 5869 5868 5868 5867
5847 5848 5849 5851 5852 5853 5855 5855 5856 5856 5857 5858 5859 5860 5862 5860 5861 5862 5862 5863 5863 5863 5863 5863 5863 5864 5864 5864 5864 5865 5865 5865 5865 5866 5866 5866 5866 5866 5866 5865 5865 5865 5864 5864
5842 5843 5844 5845 5847 5848 5848 5849 5849 5850 5851 5852 5853 5854 5855 5855 5855 5855 5856 5856 5857 5857 5857 5857 5857 5857 5858 5858 5858 5859 5859 5860 5860 5860 5860 5861 5861 5861 5861 5861 5861 5860 5860 5860
5836 5837 5838 5840 5841 5842 5843 5844 5845 5845 5846 5847 5847 5846 5848 5848 5848 5849 5849 5849 5850 5850 5850 5850 5850 5851 5851 5851 5852 5852 5853 5853 5854 5854 5855 5855 5855 5855 5855 5856 5855 5855 5855 5855
5831 5833 5833 5834 5835 5836 5837 5839 5840 5841 5843 5843 5840 5839 5842 5840 5841 5841 5842 5842 5842 5843 5843 5843 5844 5844 5844 5844 5845 5845 5846 5847 5847 5848 5849 5849 5849 5849 5849 5850 5850 5850 5850 5850
5826 5827 5826 5827 5828 5830 5830 5831 5833 5834 5834 5834 5834 5833 5833 5833 5833 5834 5834 5834 5835 5835 5836 5836 5836 5836 5837 5837 5837 5838 5839 5840 5841 5841 5842 5842 5842 5843 5843 5843 5844 5844 5845 5845
5819 5820 5820 5821 5822 5822 5824 5824 5825 5826 5826 5827 5827 5827 5827 5826 5826 5826 5826 5826 5827 5828 5828 5829 5829 5829 5829 5830 5830 5831 5831 5832 5833 5834 5835 5835 5835 5835 5836 5836 5838 5838 5839 5839
5813 5814 5814 5814 5814 5816 5816 5817 5817 5818 5819 5820 5821 5823 5819 5818 5818 5819 5819 5819 5819 5820 5820 5821 5821 5822 5822 5822 5823 5823 5824 5825 5826 5826 5827 5828 5828 5828 5829 5830 5831 5832 5832 5833
5807 5807 5807 5807 5807 5808 5808 5809 5810 5811 5811 5811 5813 5816 5810 5810 5810 5811 5811 5811 5811 5812 5812 5813 5813 5814 5814 5815 5815 5816 5816 5817 5818 5819 5819 5820 5821 5822 5823 5824 5824 5825 5826 5826
5801 5801 5801 5801 5802 5801 5801 5801 5802 5803 5803 5804 5805 5807 5802 5801 5802 5802 5803 5803 5803 5804 5804 5804 5805 5806 5806 5806 5807 5807 5808 5809 5810 5810 5811 5812 5813 5815 5816 5817 5817 5818 5818 5819
5794 5794 5796 5797 5796 5794 5793 5794 5794 5795 5796 5796 5796 5797 5795 5794 5794 5794 5794 5794 5795 5795 5795 5796 5797 5797 5798 5798 5799 5799 5800 5800 5802 5803 5804 5805 5806 5807 5808 5809 5810 5811 5811 5812
5788 5788 5787 5787 5787 5787 5786 5787 5787 5787 5787 5788 5788 5787 5786 5786 5785 5785 5785 5785 5785 5786 5786 5787 5788 5788 5789 5790 5790 5791 5791 5792 5793 5794 5796 5797 5798 5799 5800 5801 5802 5803 5804 5805
5781 5781 5781 5780 5780 5779 5779 5779 5779 5779 5779 5778 5778 5778 5778 5777 5776 5776 5776 5776 5776 5777 5777 5778 5779 5779 5780 5781 5781 5782 5783 5784 5785 5786 5787 5789 5789 5791 5792 5794 5795 5796 5797 5798
5775 5775 5774 5774 5773 5772 5772 5772 5771 5771 5770 5770 5770 5771 5769 5768 5768 5767 5767 5767 5768 5768 5769 5769 5769 5770 5771 5772 5772 5773 5774 5775 5776 5777 5779 5780 5782 5783 5785 5786 5787 5789 5790 5791
5769 5768 5767 5767 5767 5766 5767 5764 5764 5762 5762 5761 5761 5761 5760 5760 5759 5759 5759 5759 5759 5759 5760 5760 5760 5761 5761 5762 5763 5764 5765 5765 5767 5768 5770 5772 5773 5775 5777 5778 5779 5781 5782 5783
5762 5762 5761 5761 5760 5758 5758 5757 5756 5755 5755 5754 5753 5753 5752 5751 5751 5750 5750 5750 5750 5750 5751 5751 5751 5752 5752 5753 5754 5754 5755 5756 5758 5760 5761 5763 5765 5766 5768 5770 5771 5772 5774 5775
5756 5755 5755 5754 5753 5753 5752 5751 5749 5749 5748 5747 5745 5745 5745 5744 5743 5743 5742 5741 5741 5741 5741 5742 5742 5742 5743 5743 5744 5745 5746 5747 5749 5751 5753 5755 5756 5758 5760 5761 5763 5765 5766 5767
5750 5750 5749 5748 5747 5746 5745 5744 5744 5744 5743 5740 5739 5738 5737 5736 5735 5735 5734 5733 5733 5733 5733 5733 5733 5733 5733 5734 5734 5735 5737 5739 5740 5742 5744 5746 5748 5750 5751 5753 5755 5756 5758 5759
5745 5744 5743 5742 5741 5742 5739 5738 5738 5737 5735 5734 5732 5731 5730 5729 5728 5727 5726 5726 5725 5725 5725 5725 5724 5724 5725 5725 5725 5726 5727 5729 5731 5733 5735 5736 5738 5741 5743 5745 5746 5748 5749 5751
5739 5739 5737 5737 5737 5734 5732 5732 5731 5730 5729 5728 5727 5725 5724 5723 5721 5720 5720 5719 5718 5718 5718 5717 5717 5717 5717 5717 5717 5717 5718 5719 5721 5723 5725 5727 5729 5732 5734 5736 5738 5739 5741 5743
5733 5732 5731 5730 5729 5727 5726 5725 5725 5724 5723 5722 5721 5720 5718 5717 5716 5714 5713 5713 5712 5712 5711 5710 5710 5710 5710 5709 5709 5709 5709 5710 5712 5714 5716 5718 5720 5722 5724 5727 5729 5730 5732 5734
5728 5726 5725 5724 5723 5721 5720 5719 5719 5718 5717 5716 5715 5714 5713 5711 5710 5708 5707 5706 5706 5705 5704 5703 5703 5703 5702 5701 5701 5701 5702 5703 5704 5706 5707 5709 5711 5713 5715 5717 5719 5722 5724 5725
5722 5721 5720 5718 5717 5716 5715 5714 5713 5712 5711 5710 5709 5708 5707 5705 5704 5702 5701 5700 5699 5698 5697 5697 5696 5696 5695 5694 5694 5694 5695 5695 5696 5698 5700 5701 5703 5705 5707 5709 5711 5713 5715 5717